Flag for Austria Weather past 2 weeks in Fürstenfeld, Styria, Austria

Now
44 °F

Fog.


Feels Like: 44 °F
Forecast: 37 / 54 °F
Wind: 2 mph from Northeast

Location: Murska Sobota

Current Time: Oct 25, 2014 at 8:35:24 AM

Latest Report: Oct 25, 2014 at 7:00 AM


Visibility: 2 mi

Pressure: 30.24 "Hg

Humidity: 94%

Dew point: 42 °F

Location of FürstenfeldLocation

Historic Weather in Fürstenfeld — Graph

°F

Fürstenfeld temperature yesterday

Maximum temperature yesterday: 51 °F (at 1:00 AM)
Minimum temperature yesterday: 46 °F (at 11:00 PM)
Average temperature yesterday: 50 °F

Past Weeks' High & Low Weather Summary

 TemperatureHumidityPressure
High79 °F (Oct 10, 1:00 PM)100% (Oct 11, 6:00 AM)30.35 "Hg (Oct 11, 6:00 AM)
Low42 °F (Oct 22, 8:00 AM)44% (Oct 14, 3:00 PM)29.61 "Hg (Oct 22, 1:00 AM)
Average59 °F83%29.95 "Hg
* Reported Oct 10 7:00 AM — Oct 25 7:00 AM, Fürstenfeld, Weather by CustomWeather, © 2014

Note: Actual official high and low records may vary slightly from our data, if they occured in-between our weather recording intervals... More about our weather records

Advertising

Fürstenfeld weather history for previous 24 hours

 ConditionsComfort  
Time TempWeatherWind HumidityBarometerVisibility
7:00 AM
Oct 25
44 °FFog.2 mph94%30.24 "Hg2 mi
6:00 AM44 °FFog.2 mph94%30.24 "Hg2 mi
5:00 AM44 °FFog.2 mph94%30.23 "Hg2 mi
4:00 AM44 °FQuite cool.2 mph94%30.22 "HgN/A
3:00 AM45 °FQuite cool.2 mph92%30.23 "HgN/A
2:00 AM45 °FCool.2 mph90%30.22 "HgN/A
1:00 AM45 °FCool.3 mph92%30.22 "HgN/A
12:00 AM46 °FCool.2 mph92%30.20 "HgN/A
11:00 PM
Oct 24
46 °FCool.2 mph91%30.20 "HgN/A
10:00 PM46 °FCool.3 mph90%30.18 "HgN/A
9:00 PM46 °FCool.2 mph92%30.17 "HgN/A
8:00 PM47 °FLight rain. Overcast.3 mph88%30.14 "Hg6 mi
7:00 PM47 °FCool.5 mph86%30.12 "HgN/A
6:00 PM48 °FCool.3 mph86%30.11 "HgN/A
5:00 PM49 °FCool.5 mph80%30.09 "HgN/A
4:00 PM50 °FCool.6 mph76%30.09 "HgN/A
3:00 PM50 °FLight rain. Overcast.6 mph75%30.08 "Hg12 mi
2:00 PM50 °FOvercast.6 mph76%30.08 "Hg12 mi
1:00 PM50 °FOvercast.7 mph74%30.07 "Hg31 mi
12:00 PM51 °FOvercast.8 mph75%30.07 "Hg31 mi
11:00 AM51 °FOvercast.8 mph76%30.05 "Hg31 mi
10:00 AM51 °FOvercast.7 mph76%30.03 "Hg31 mi
9:00 AM50 °FOvercast.8 mph76%30.01 "Hg31 mi
8:00 AM50 °FOvercast.7 mph78%30.00 "Hg31 mi
Weather by CustomWeather, © 2014

See weather overviewHow to use our weather pages